Location: Saint-Hippolyte
(43.6394°N, 4.7559°E)
Time: 14:50:58
(UTC+00:00)

CZ-4 R/B - Pass Details

Date: 24 October 2020
Orbit: 531 x 598 km, 97.7° (Epoch: 24 November)

Event Time Altitude Azimuth Distance (km) Brightness Sun altitude
Rises 17:21:34 0° 135° (SE) 2,718 4.5 -7.7°
Reaches altitude 10° 17:23:59 10° 122° (ESE) 1,817 3.5 -8.1°
Maximum altitude 17:27:08 24° 68° (ENE) 1,164 2.4 -8.7°
Drops below altitude 10° 17:30:16 10° 14° (NNE) 1,805 3.7 -9.2°
Sets 17:32:40 0° 1° (N) 2,695 4.8 -9.7°
